Погода в Факеле

Россия / Удмуртская Республика     57°37′50″N   53°01′26″E
темп.,
°C
ветер,
м/с
пор.,
м/с
влажн.,
%
обл.,
%
осадки,
мм/ч
давл.,
гПа
погр.,
м
9 мая, вс
вс901:00+9юв34925 0.0 101659
04:00+8ююв34923 0.0 101659
07:00+13ююв36760 0.0 1016211
10:00+18юв46480 0.0 10161139
13:00+21ююв56375 0.0 10152046
16:00+21ююв56354 0.0 10152220
19:00+18ююв37505 0.0 1016208
22:00+13юв376211 0.0 101794
10 мая, пн
пн1001:00+12юв3765100 0.0 1017112
04:00+12ююв396699 0.0 1018177
07:00+14ююв396497 0.0 1019246
10:00+20ю3547100 0.0 1020846
13:00+22ююз2436100 0.0 10212538
16:00+23ююв3335100 0.0 10211939
19:00+18зюз2253100 0.0 102227
22:00+14ссз41081100 0.1 1025362
11 мая, вт
вт1101:00+13св2288100 0.1 102539
04:00+13ссв2292100 0.1 102648
07:00+14с238484 0.0 1027315
10:00+18ссз216961 0.0 1028853
13:00+19ссз336124 0.1 10281078
16:00+21ссз345129 0.1 10291501
19:00+18с24623 0.0 1029141
22:00+13всв23795 0.0 103035
12 мая, ср
ср1201:00+11св228418 0.0 103218
04:00+10в22885 0.0 103213
07:00+13всв24737 0.0 1032219
10:00+19всв224827 0.0 1032845
13:00+22всв11344 0.0 10311405
16:00+23с11348 0.0 10301597
19:00+20с11475 0.0 103012
22:00+15в11578 0.0 103011
13 мая, чт
чт1301:00+13вюв116275 0.0 103110
04:00+12вюв11645 0.0 103110
07:00+16вюв115564 0.0 1031103
10:00+22юв22396 0.0 1030847
13:00+25юв223339 0.0 10291711
16:00+25ююв22325 0.0 10281945
19:00+22юв34505 0.0 102878
22:00+17ю22615 0.0 102823